Regional Weather Roundup
Issued by NWS Albany, NY

Home | Current Version | Previous Version | Text Only | Print | Product List | Glossary On
Versions: 1 2 3 4 5 6 7 8 9 10 11 12 13 14 15 16 17 18 19 20 21 22 23 24 25 26 27
000
ASUS41 KALY 310310
RWRALY

NEW YORK STATE HOURLY WEATHER ROUNDUP
NATIONAL WEATHER SERVICE ALBANY NY
1100 PM EDT TUE AUG 30 2016

NOTE: "FAIR" INDICATES FEW OR NO CLOUDS BELOW 12,000 FEET WITH NO
SIGNIFICANT WEATHER AND/OR NO OBSTRUCTIONS TO VISIBILITY.

NYZ032-033-038>043-046>054-057>066-NYZ062>081-082-084-310400-
EAST


CITY           SKY/WX    TMP DP  RH WIND       PRES   REMARKS
ALBANY         PTCLDY    67  59  75 CALM      30.04S
GLENS FALLS    PTCLDY    63  59  87 CALM      30.02S
POUGHKEEPSIE   PTCLDY    66  61  84 CALM      30.03F
NEWBURGH       CLEAR     68  63  83 CALM      30.07S
MONTGOMERY     PTCLDY    64  61  90 SW3       30.06R
WHITE PLAINS   CLOUDY    70  65  84 CALM      30.06F
ISLIP          MOCLDY    74  66  76 S5        30.05F
NEW YORK CITY  CLOUDY    77  69  76 S10       30.05S
CENTRAL PARK   CLOUDY    76  65  68 CALM      30.09R
$$

NYZ005>009-017-018-044>046-055-056-310400-
CENTRAL


CITY           SKY/WX    TMP DP  RH WIND       PRES   REMARKS
FULTON         CLOUDY    64  62  93 CALM      30.01F
SYRACUSE       PTCLDY    69  59  70 SE5       30.01F
ROME           CLOUDY    65  61  87 E5        30.04F
ELMIRA         CLOUDY    65  60  84 CALM      30.06S
BINGHAMTON     CLOUDY    66  57  72 SE5       30.09F
MONTICELLO     PTCLDY    63  59  88 CALM      30.11F
$$

NYZ026>034-041>043-087-310400-
NORTH


CITY           SKY/WX    TMP DP  RH WIND       PRES   REMARKS
WATERTOWN      MOCLDY    69  59  70 CALM      29.99S
FORT DRUM      NOT AVBL
MASSENA        CLOUDY    71  58  63 SW7       29.97F
SARANAC LAKE   MOCLDY    63  58  83 SW6       30.04F
PLATTSBURGH    MOCLDY    66  62  87 CALM      29.97F
$$

NYZ001>004-010>016-019>021-085-310400-
WEST


CITY           SKY/WX    TMP DP  RH WIND       PRES   REMARKS
NIAGARA FALLS  CLOUDY    74  65  73 S6        30.02F
BUFFALO        CLOUDY    71  61  70 S6        30.03F
DUNKIRK        PTCLDY    66  60  81 S3        30.04F
JAMESTOWN      PTCLDY    64  61  88 S3        30.10F
WELLSVILLE     MOCLDY    68  58  70 CALM      30.13F
ROCHESTER      MOCLDY    69  63  81 SW3       30.02F
PENN YAN       CLOUDY    67  60  78 S5        30.06F
$$

             KEY
       WCI = WIND CHILL INDEX
       VSB = VISIBILITY
       HX  = HEAT INDEX
$$




USA.gov is the U.S. government's official web portal to all federal, state and local government web resources and services.